STARLINK-5705, 55472

Orbit data source: Space-Track

STARLINK-5705, 55472 is a payload satellite owned by SpaceX/Seattle (US) in LEO that was launched on Thu, 02 Feb 2023 UTC via an FALCON 9 launch vehicle from the Air Force Eastern Test Range (AFETR). Payload-class satellites include a variety of spacecraft equipped with specific instruments for various scientific and technological missions. These include communications satellites like Starlink; space stations such as the ISS; scientific satellites like the Hubble; Earth observation satellites from companies like Planet Labs, Umbra, and HawkEye 360; GPS; miniature CubeSats for education and research; and military/defense satellites.

Loading next visibility...
Identifier
55472, 2023-015Z
Orbit
LEO
Country
Flag of USUS
Related business
Manufacturer
SpaceX/Seattle
Mission
Operational Commercial Communications
Bus & Motor
STARLINK, Unknown motor
Mass
305 kg wet, ~290 kg dry
Launch date (UTC)
2023-02-02 (3 years ago)
Launch vehicle
FALCON 9
Launch site
Air Force Eastern Test Range (AFETR)
Object type
Payload
Rocket body
Debris
Shape & HBR
Box + 1 Pan, 10.1 m
Radar Cross Section
13.562 m², Large (>1 m²)

Expand to show TLE details & history
Last TLE update: 6 hours ago

TLE from 6 hours ago
0 STARLINK-5705
1 55472U 23015Z   26132.78672375  .00001921  00000-0  79344-4 0  9997
2 55472  43.0032 319.8053 0001558 265.9155  94.1518 15.27569736180602
Epoch: 2026-05-12T18:52Z
TLE epoch observation values (Epoch: 2026-05-12T18:52:52.932Z)
Latitude
-0.00004°
Longitude
166.02861°
Altitude
482.933 km
Speed
7.626 km/s
True Right ascension
21h 19m 13s
True Declination
0° 00' 00"
Sunlit
Object was in daylight at epoch
Visualization orbit readout
Latitude
Unknown
Longitude
Unknown
Altitude
Unknown
Speed
Unknown
Apparent Right ascension
Unknown
Apparent Declination
Unknown
Sunlit
N/A
Visualization observer readout
Local Sidereal Time
09:31:32
Azimuth
Unknown
Elevation
Unknown
Doppler factor
Unknown
Orbital elements
Apogee altitude
486.094 km
Perigee altitude
483.955 km
Semi-major axis
6,863.161 km
Eccentricity
0.00016
Inclination
43.0032°
RAAN
319.8053°
Arg. of periapsis
265.9155°
True anomaly
94.16961°
Mean anomaly
94.1518°
Eccentric anomaly
94.1607°
Mean motion
3.8173 °/min
Orbital period
94.31 mins
BSTAR
0.000079344
Loading maneuver chart data...
Computing Atmospheric mass density...
Loading historical data...
Loading historical data...
Loading historical data...
Loading historical data...
Loading historical data...
Loading historical data...
Loading historical data...

Documentation

Showing up to 5 results
|